Yakima, WA

12:08 PM PDT on March 30, 2017 (GMT -0700)
Yakima Air Term-McAllister

Weather History for KYKM - January, 2014

Change the Weather History Date:

Friday, January 3, 2014

  Actual Average Record
Temperature  
Mean Temperature 36 °F 28 °F  
Max Temperature 52 °F 35 °F 57 °F (1989)
Min Temperature 20 °F 22 °F -5 °F (1959)
Degree Days  
Heating Degree Days 29 37  
Month to date heating degree days 99 111  
Since 1 July heating degree days 2670 2774  
Cooling Degree Days 0 0  
Month to date cooling degree days 0 0  
Year to date cooling degree days 0 0  
Moisture  
Dew Point 21 °F    
Average Humidity 59    
Maximum Humidity 92    
Minimum Humidity 26    
Precipitation  
Precipitation 0.00 in 0.04 in 0.60 in (1966)
Month to date precipitation 0.00 0.13  
Year to date precipitation 0.00 0.13  
Snow  
Snow 0.00 in 0.20 in 10.60 in (1966)
Month to date snowfall 0.0 0.7  
Year to date snowfall 0.0 0.7  
Since 1 July snowfall T 13.7  
Snow Depth 0.00 in    
Sea Level Pressure  
Sea Level Pressure 30.10 in    
Wind  
Wind Speed 10 mph (WNW)    
Max Wind Speed 25 mph    
Max Gust Speed 33 mph    
Visibility 10 miles    
Events      
T = Trace of Precipitation, MM = Missing Value Source: NWS Daily Summary

Daily Weather History Graph

Daily Weather History Graph

Search for Another Location

Airport or City:

Trip Planner

Search our weather history database for the weather conditions in past years. The results will help you decide how hot, cold, wet, or windy it might be!

Date:

Astronomy

Jan. 03, 2014 Rise Set
Actual Time 7:46 AM PST 4:27 PM PST
Civil Twilight 7:11 AM PST 5:02 PM PST
Nautical Twilight 6:33 AM PST 5:40 PM PST
Astronomical Twilight 5:56 AM PST 6:17 PM PST
Moon 9:04 AM PST (1/3) 7:55 PM PST (1/3)
Length of Visible Light 9h 50m
Length of Day
8h 41m
Waxing Crescent, 8% of the Moon is Illuminated
Jan 3
Waxing Crescent
Jan 7
First Quarter
Jan 15
Full
Jan 23
Last Quarter
Jan 30
New

Hourly Weather History & Observations

Time (PST) Temp. Windchill Dew Point Humidity Pressure Visibility Wind Dir Wind Speed Gust Speed Precip Events Conditions
12:06 AM 30.0 °F 23.2 °F 28.0 °F 92% 29.88 in 5.0 mi West 6.9 mph - N/A   Mostly Cloudy
12:53 AM 32.0 °F 25.6 °F 28.0 °F 85% 29.89 in 7.0 mi ESE 6.9 mph - N/A   Partly Cloudy
1:53 AM 48.9 °F - 26.1 °F 41% 29.92 in 10.0 mi West 18.4 mph 31.1 mph N/A   Clear
2:53 AM 48.9 °F - 25.0 °F 39% 29.95 in 10.0 mi West 17.3 mph 28.8 mph N/A   Clear
3:53 AM 42.1 °F - 25.0 °F 51% 29.98 in 10.0 mi Calm Calm - N/A   Clear
4:53 AM 48.0 °F - 21.9 °F 36% 29.99 in 10.0 mi WNW 16.1 mph 29.9 mph N/A   Clear
5:53 AM 45.0 °F 38.9 °F 19.9 °F 37% 30.02 in 10.0 mi NW 12.7 mph 21.9 mph N/A   Clear
6:53 AM 42.1 °F 34.9 °F 21.0 °F 43% 30.05 in 10.0 mi NW 13.8 mph - N/A   Clear
7:53 AM 37.9 °F - 19.9 °F 48% 30.08 in 10.0 mi Calm Calm - N/A   Clear
8:53 AM 41.0 °F 39.0 °F 19.0 °F 41% 30.10 in 10.0 mi South 3.5 mph - N/A   Clear
9:53 AM 46.0 °F 44.8 °F 19.9 °F 35% 30.10 in 10.0 mi East 3.5 mph - N/A   Clear
10:53 AM 51.1 °F - 18.0 °F 27% 30.09 in 10.0 mi WNW 15.0 mph - N/A   Clear
11:53 AM 51.1 °F - 19.0 °F 28% 30.08 in 10.0 mi West 15.0 mph - N/A   Clear
12:53 PM 51.1 °F - 19.0 °F 28% 30.08 in 10.0 mi West 19.6 mph 24.2 mph N/A   Clear
1:53 PM 50.0 °F - 19.9 °F 31% 30.07 in 10.0 mi West 19.6 mph 27.6 mph N/A   Clear
2:53 PM 48.9 °F - 21.0 °F 33% 30.10 in 10.0 mi WNW 17.3 mph - N/A   Clear
3:53 PM 46.0 °F 39.9 °F 19.9 °F 35% 30.11 in 10.0 mi WNW 13.8 mph 23.0 mph N/A   Clear
4:53 PM 44.1 °F 37.4 °F 21.0 °F 40% 30.15 in 10.0 mi North 13.8 mph 20.7 mph N/A   Clear
5:53 PM 42.1 °F 34.2 °F 19.9 °F 41% 30.17 in 10.0 mi NNW 16.1 mph - N/A   Clear
6:53 PM 42.1 °F 35.7 °F 19.9 °F 41% 30.21 in 10.0 mi NW 11.5 mph - N/A   Clear
7:53 PM 41.0 °F 33.9 °F 19.9 °F 43% 30.22 in 10.0 mi NNW 12.7 mph - N/A   Clear
8:53 PM 34.0 °F 31.0 °F 18.0 °F 52% 30.25 in 10.0 mi West 3.5 mph - N/A   Clear
9:53 PM 30.9 °F - 17.1 °F 57% 30.27 in 10.0 mi Calm Calm - N/A   Clear
10:53 PM 25.0 °F - 15.1 °F 66% 30.30 in 10.0 mi Calm Calm - N/A   Clear
11:53 PM 21.9 °F - 14.0 °F 72% 30.31 in 10.0 mi Calm Calm - N/A   Clear